Ocala, FL

11:12 PM EDT on July 24, 2017 (GMT -0400)
Ocala Regional-Taylor

Weather History for KOCF - February, 2014

Change the Weather History Date:

Saturday, February 15, 2014

  Actual Average Record
Temperature  
Mean Temperature 53 °F -  
Max Temperature 64 °F 70 °F 84 °F (2001)
Min Temperature 41 °F 46 °F 30 °F (2006)
Degree Days  
Heating Degree Days 12    
Growing Degree Days 3 (Base 50)    
Moisture  
Dew Point 39 °F    
Average Humidity 66    
Maximum Humidity 82    
Minimum Humidity 28    
Precipitation  
Precipitation 0.00 in - - ()
Sea Level Pressure  
Sea Level Pressure 30.01 in    
Wind  
Wind Speed 7 mph (WSW)    
Max Wind Speed 16 mph    
Max Gust Speed 26 mph    
Visibility 10 miles    
Events      
Averages and records for this station are not official NWS values.
T = Trace of Precipitation, MM = Missing Value Source: NWS Daily Summary

Daily Weather History Graph

Daily Weather History Graph

Search for Another Location

Airport or City:

Trip Planner

Search our weather history database for the weather conditions in past years. The results will help you decide how hot, cold, wet, or windy it might be!

Date:

Astronomy

Feb. 15, 2014 Rise Set
Actual Time 7:07 AM EST 6:18 PM EST
Civil Twilight 6:43 AM EST 6:42 PM EST
Nautical Twilight 6:15 AM EST 7:10 PM EST
Astronomical Twilight 5:48 AM EST 7:38 PM EST
Moon 7:09 PM EST (2/15) 7:12 AM EST (2/15)
Length of Visible Light 11h 59m
Length of Day
11h 10m
Full, 100% of the Moon is Illuminated
Feb 15
Full
Feb 22
Last Quarter
Mar 1
New
Mar 8
First Quarter
Mar 16
Full

Hourly Weather History & Observations

Time (EST) Temp. Windchill Dew Point Humidity Pressure Visibility Wind Dir Wind Speed Gust Speed Precip Events Conditions
12:15 AM 46.4 °F 42.9 °F 39.2 °F 76% 29.93 in 10.0 mi South 6.9 mph - N/A   Clear
12:35 AM 46.4 °F 42.9 °F 39.2 °F 76% 29.92 in 10.0 mi South 6.9 mph - N/A   Clear
12:55 AM 44.6 °F 42.2 °F 37.4 °F 76% 29.93 in 10.0 mi SSW 4.6 mph - N/A   Clear
1:15 AM 44.6 °F 42.2 °F 37.4 °F 76% 29.92 in 10.0 mi SSW 4.6 mph - N/A   Clear
1:35 AM 44.6 °F 41.4 °F 37.4 °F 76% 29.93 in 10.0 mi South 5.8 mph - N/A   Clear
1:55 AM 44.6 °F 41.4 °F 37.4 °F 76% 29.93 in 10.0 mi SSW 5.8 mph - N/A   Mostly Cloudy
2:15 AM 44.6 °F 40.7 °F 39.2 °F 81% 29.92 in 10.0 mi South 6.9 mph - N/A   Overcast
2:35 AM 46.4 °F 42.4 °F 39.2 °F 76% 29.91 in 10.0 mi South 8.1 mph - N/A   Mostly Cloudy
2:55 AM 46.4 °F 42.4 °F 39.2 °F 76% 29.89 in 10.0 mi South 8.1 mph - N/A   Partly Cloudy
3:15 AM 46.4 °F 42.4 °F 39.2 °F 76% 29.89 in 10.0 mi South 8.1 mph - N/A   Clear
3:35 AM 48.2 °F - 42.8 °F 82% 29.88 in 10.0 mi South 9.2 mph - N/A   Clear
3:55 AM 48.2 °F - 42.8 °F 82% 29.88 in 10.0 mi SSW 10.4 mph - N/A   Clear
4:15 AM 50.0 °F - 44.6 °F 82% 29.88 in 10.0 mi SSW 10.4 mph - N/A   Clear
4:35 AM 51.8 °F - 46.4 °F 82% 29.88 in 10.0 mi SSW 11.5 mph - N/A   Mostly Cloudy
4:55 AM 51.8 °F - 44.6 °F 76% 29.87 in 10.0 mi SSW 11.5 mph - N/A   Scattered Clouds
5:15 AM 53.6 °F - 46.4 °F 77% 29.88 in 10.0 mi SSW 11.5 mph - N/A   Scattered Clouds
5:35 AM 53.6 °F - 46.4 °F 77% 29.87 in 10.0 mi SSW 16.1 mph - N/A   Partly Cloudy
5:55 AM 53.6 °F - 46.4 °F 77% 29.87 in 10.0 mi SW 12.7 mph - N/A   Mostly Cloudy
6:15 AM 53.6 °F - 48.2 °F 82% 29.89 in 10.0 mi SW 10.4 mph - N/A   Overcast
6:35 AM 55.4 °F - 48.2 °F 77% 29.91 in 10.0 mi NW 10.4 mph - N/A   Overcast
6:50 AM 55.4 °F - 48.2 °F 77% 29.94 in 9.0 mi WNW 15.0 mph 26.5 mph N/A   Scattered Clouds
7:50 AM 53.6 °F - 39.2 °F 58% 29.97 in 10.0 mi WNW 9.2 mph - N/A   Mostly Cloudy
8:50 AM 53.6 °F - 39.2 °F 58% 30.01 in 10.0 mi WNW 9.2 mph - N/A   Scattered Clouds
9:50 AM 55.4 °F - 39.2 °F 54% 30.03 in 10.0 mi WNW 9.2 mph 20.7 mph N/A   Clear
10:50 AM 57.2 °F - 37.4 °F 48% 30.05 in 10.0 mi WNW 11.5 mph 20.7 mph N/A   Clear
11:50 AM 60.8 °F - 35.6 °F 39% 30.05 in 10.0 mi WNW 11.5 mph 20.7 mph N/A   Clear
12:50 PM 62.6 °F - 35.6 °F 37% 30.04 in 10.0 mi West 12.7 mph 20.7 mph N/A   Clear
1:50 PM 64.4 °F - 33.8 °F 32% 30.04 in 10.0 mi WNW 10.4 mph 17.3 mph N/A   Clear
2:50 PM 64.4 °F - 32.0 °F 30% 30.04 in 10.0 mi WNW 10.4 mph 17.3 mph N/A   Clear
3:50 PM 64.4 °F - 30.2 °F 28% 30.05 in 10.0 mi NW 9.2 mph 17.3 mph N/A   Clear
4:50 PM 64.4 °F - 30.2 °F 28% 30.07 in 10.0 mi North 10.4 mph - N/A   Clear
5:50 PM 62.6 °F - 32.0 °F 32% 30.09 in 10.0 mi NNW 6.9 mph - N/A   Clear
6:50 PM 55.4 °F - 39.2 °F 54% 30.12 in 10.0 mi SW 8.1 mph - N/A   Clear
7:55 PM 51.8 °F - 39.2 °F 62% 30.15 in 10.0 mi WSW 5.8 mph - N/A   Clear
8:15 PM 50.0 °F - 39.2 °F 66% 30.16 in 10.0 mi WNW 6.9 mph - N/A   Clear
8:35 PM 50.0 °F - 37.4 °F 62% 30.16 in 10.0 mi WNW 4.6 mph - N/A   Clear
8:55 PM 50.0 °F - 37.4 °F 62% 30.17 in 10.0 mi NW 4.6 mph - N/A   Clear
9:15 PM 48.2 °F - 37.4 °F 66% 30.17 in 10.0 mi NW 4.6 mph - N/A   Clear
9:35 PM 48.2 °F - 37.4 °F 66% 30.17 in 10.0 mi Calm Calm - N/A   Clear
9:55 PM 46.4 °F - 35.6 °F 66% 30.17 in 10.0 mi Calm Calm - N/A   Clear
10:15 PM 46.4 °F - 35.6 °F 66% 30.18 in 10.0 mi Calm Calm - N/A   Clear
10:35 PM 44.6 °F - 35.6 °F 71% 30.17 in 10.0 mi Calm Calm - N/A   Clear
10:55 PM 42.8 °F - 35.6 °F 76% 30.16 in 10.0 mi Calm Calm - N/A   Clear
11:15 PM 42.8 °F - 33.8 °F 70% 30.16 in 10.0 mi Calm Calm - N/A   Clear
11:35 PM 42.8 °F - 33.8 °F 70% 30.15 in 10.0 mi Calm Calm - N/A   Clear
11:55 PM 41.0 °F - 35.6 °F 81% 30.15 in 10.0 mi Calm Calm - N/A   Clear